Location: Cuiry
(49.3858°N, 3.7708°E)
Time: 00:29:21
(UTC+00:00)

UNK - Pass Details

Date: 14 April 2026
Orbit: 653 x 673 km, 98.4° (Epoch: 19 May)

Event Time Altitude Azimuth Distance (km) Brightness Sun altitude
Rises 02:39:49 0° 114° (ESE) 3,017 7.4 -19.9°
Reaches altitude 10° 02:42:51 10° 92° (E) 2,107 6.9 -19.6°
Maximum altitude 02:45:32 16° 56° (ENE) 1,763 6.9 -19.3°
Drops below altitude 10° 02:48:12 10° 21° (NNE) 2,110 7.2 -18.9°
Sets 02:51:14 0° 359° (N) 3,026 7.7 -18.6°
